GSAT0211 (GALILEO 14)

Last updated on Oct. 24, 2020, 5:54 a.m. UTC

1 41549U 16030A   20297.36585550 -.00000010  00000-0  00000-0 0  9992
2 41549  56.1982 278.4430 0005015 299.6847  60.2506  1.70474579 27507
UTC
Height (km)
Latitude
Longitude
Inclination
Orbital Period
UTC large
Height (km)
Speed (km/s)
/
Latitude / Longitude
Inclination (degrees)
Orbital Period (minutes)
Azimuth
Elevation
Range (km)
Doppler Factor
iOS Compass Heading
iOS Angle

Next 30 passes for location: Hong Kong

Rise time Rise Azimuth (degrees) Set time Set Azimuth (degrees) Duration Max altitude (degrees)

No matching passes for this satellites